This is the latest recevied weather packets stored in our database for station/object KC9DNQ-3. If no packets are shown the sender has not sent any weather packets the latest 10 day(s).
| Time | Temp. | Humidity | Pressure | Rain* | Wind** | Luminosity | Snow |
|---|---|---|---|---|---|---|---|
| 1778167210 | 13.33° C | 46% | 1013.8 hPa | 0 mm | - | 715 W/m² | - |
| 1778166910 | 13.33° C | 46% | 1014.3 hPa | 0 mm | - | 710 W/m² | - |
| 1778166610 | 12.78° C | 49% | 1014.3 hPa | 0 mm | - | 693 W/m² | - |
| 1778166310 | 12.22° C | 51% | 1014.3 hPa | 0 mm | - | 677 W/m² | - |
| 1778166011 | 12.22° C | 48% | 1014.3 hPa | 0 mm | - | 104 W/m² | - |
| 1778165710 | 12.22° C | 50% | 1014.3 hPa | 0 mm | - | 517 W/m² | - |
| 1778165409 | 11.67° C | 49% | 1014.3 hPa | 0 mm | - | 123 W/m² | - |
| 1778165110 | 11.67° C | 50% | 1014.3 hPa | 0 mm | - | 304 W/m² | - |
| 1778164810 | 11.67° C | 48% | 1014.4 hPa | 0 mm | - | 459 W/m² | - |
| 1778164510 | 11.67° C | 49% | 1014.4 hPa | 0 mm | - | 485 W/m² | - |
| 1778164210 | 11.11° C | 50% | 1014.5 hPa | 0 mm | - | 489 W/m² | - |
| 1778163909 | 11.11° C | 53% | 1014.7 hPa | 0 mm | - | 462 W/m² | - |
| 1778163610 | 11.11° C | 50% | 1014.7 hPa | 0 mm | - | 446 W/m² | - |
| 1778163309 | 11.11° C | 52% | 1014.7 hPa | 0 mm | - | 429 W/m² | - |
| 1778163010 | 10.56° C | 52% | 1014.7 hPa | 0 mm | - | 417 W/m² | - |
| 1778162709 | 10.56° C | 52% | 1014.8 hPa | 0 mm | - | 274 W/m² | - |
| 1778162409 | 10.56° C | 52% | 1014.8 hPa | 0 mm | - | 216 W/m² | - |
| 1778162110 | 10.56° C | 53% | 1014.7 hPa | 0 mm | - | 302 W/m² | - |
| 1778161810 | 10.56° C | 54% | 1014.7 hPa | 0 mm | - | 564 W/m² | - |
| 1778161509 | 10° C | 53% | 1014.8 hPa | 0 mm | - | 531 W/m² | - |
| 1778161209 | 10° C | 56% | 1015 hPa | 0 mm | - | 443 W/m² | - |
| 1778160910 | 9.44° C | 55% | 1015 hPa | 0 mm | - | 401 W/m² | - |
| 1778160610 | 9.44° C | 59% | 1015 hPa | 0 mm | - | 381 W/m² | - |
| 1778160310 | 8.89° C | 59% | 1015 hPa | 0 mm | - | 376 W/m² | - |
| 1778160009 | 8.33° C | 58% | 1015.1 hPa | 0 mm | - | 364 W/m² | - |
* Rain latest hour (hover to see other rain measurements)
** Current wind speed in m/s (hover to see current wind gust speed)